Home > Weather > Bühl > Past weeks

Flag for Germany Weather for the Past 2 Weeks in Bühl, Baden-Württemberg, Germany

Now
50 °F

Scattered showers. Partly sunny.


Feels Like: 42 °F
Forecast: 40 / 52 °F
Wind: 33 mph from South

Location: Karlsruhe - Baden Wurttemberg

Current Time: Feb 8, 2016 at 9:47:37 AM

Latest Report: Feb 8, 2016 at 8:50 AM


Visibility: N/A

Pressure: 29.62 "Hg

Humidity: 58%

Dew point: 36 °F

Location of BühlLocation

Historic Weather in Bühl — Graph

°F

Bühl Temperature Yesterday

Maximum temperature yesterday: 46 °F (at 12:20 PM)
Minimum temperature yesterday: 32 °F (at 3:50 AM)
Average temperature yesterday: 41 °F

High & Low Weather Summary for the Past Weeks

 TemperatureHumidityPressure
High59 °F (Jan 26, 2:20 PM)100% (Jan 24, 8:20 AM)30.57 "Hg (Jan 24, 8:20 AM)
Low30 °F (Jan 24, 8:20 AM)39% (Feb 6, 3:50 PM)29.62 "Hg (Feb 7, 5:50 AM)
Average46 °F78%30.18 "Hg
* Reported Jan 24 8:20 AM — Feb 8 8:20 AM, Bühl, Weather by CustomWeather, © 2016

Note: Actual official high and low records may vary slightly from our data, if they occured in-between our weather recording intervals... More about our weather records

Advertising

Bühl Weather History for the Previous 24 Hours

 ConditionsComfort  
Time TempWeatherWind HumidityBarometerVisibility
8:20 AM
Mon, Feb 8
50 °FPartly sunny.35 mph54%29.62 "HgN/A
7:50 AM50 °FPartly sunny.35 mph54%29.62 "HgN/A
7:20 AM48 °FPassing clouds.32 mph54%29.65 "HgN/A
6:50 AM48 °FPassing clouds.29 mph54%29.65 "HgN/A
6:20 AM48 °FPassing clouds.28 mph54%29.68 "HgN/A
5:50 AM48 °FPassing clouds.32 mph54%29.68 "HgN/A
5:20 AM46 °FLight rain. Passing clouds.29 mph62%29.68 "HgN/A
4:50 AM46 °FPassing clouds.28 mph62%29.71 "HgN/A
11:50 PM
Sun, Feb 7
45 °FPassing clouds.15 mph71%29.83 "HgN/A
11:20 PM43 °FPassing clouds.15 mph76%29.83 "HgN/A
10:50 PM43 °FPassing clouds.13 mph76%29.86 "HgN/A
10:20 PM43 °FPassing clouds.13 mph76%29.86 "HgN/A
9:50 PM43 °FPassing clouds.13 mph76%29.86 "HgN/A
9:20 PM43 °FClear.14 mph76%29.86 "Hg10 mi
8:50 PM45 °FClear.16 mph71%29.83 "Hg10 mi
8:20 PM43 °FClear.15 mph81%29.83 "Hg10 mi
7:50 PM45 °FClear.18 mph76%29.83 "Hg10 mi
7:20 PM45 °FClear.18 mph81%29.83 "Hg10 mi
6:50 PM45 °FClear.20 mph81%29.83 "Hg10 mi
6:20 PM45 °FClear.20 mph81%29.83 "Hg10 mi
5:50 PM45 °FPartly cloudy.21 mph81%29.80 "HgN/A
5:20 PM45 °FBroken clouds.22 mph81%29.77 "HgN/A
4:50 PM46 °FBroken clouds.17 mph82%29.77 "HgN/A
4:20 PM46 °FPartly sunny.14 mph82%29.77 "HgN/A
3:50 PM46 °FPartly sunny.16 mph82%29.77 "HgN/A
3:20 PM46 °FBroken clouds.13 mph82%29.74 "HgN/A
2:50 PM46 °FPartly sunny.12 mph87%29.74 "HgN/A
2:20 PM45 °FLight rain. Broken clouds.13 mph93%29.74 "HgN/A
1:50 PM45 °FRain. Partly sunny.10 mph93%29.74 "Hg4 mi
1:20 PM45 °FRain. Partly sunny.12 mph93%29.74 "Hg5 mi
12:50 PM46 °FSprinkles. Partly sunny.7 mph87%29.71 "Hg6 mi
12:20 PM46 °FSprinkles. Partly sunny.9 mph87%29.71 "HgN/A
11:50 AM45 °FSprinkles. Broken clouds.8 mph87%29.68 "Hg5 mi
11:20 AM45 °FPartly sunny.5 mph81%29.68 "HgN/A
10:50 AM43 °FBroken clouds.3 mph87%29.65 "HgN/A
10:20 AM41 °FBroken clouds.3 mph93%29.65 "HgN/A
9:50 AM41 °FBroken clouds.2 mph93%29.62 "HgN/A
9:20 AM39 °FPartly sunny.3 mph93%29.62 "HgN/A
Weather by CustomWeather, © 2016

See weather overviewHow to use our weather pages